星链-30289 (STARLINK-30289 )

导读 | 星芒AI

STARLINK-30289 是 SpaceX Starlink 项目中的第 30289 颗卫星,属于其低轨卫星互联网星座的一部分。该卫星用于提供全球高速互联网服务,尤其在偏远和网络覆盖不足的地区。它运行在近地轨道,采用先进推进系统和激光通信技术,以提升网络效率和减少延迟。作为 Starlink 计划的扩展,该卫星有助于增强全球通信能力,并支持未来可能的星间通信和星座优化。

基本信息
目录编号:
57653
目录名称:
STARLINK-30289
国际标识:
2023-122X
轨道中心:
EARTH
卫星名称:
星链-30289
卫星全名:
星链-30289 (STARLINK-30289 )
卫星状态:
在轨 (已飞行855 天)
发射日期:
2023-08-17 UTC
国别 :
美国 (US)
星等 :
--
轨道信息
数据来源 国际轨道数据 AOE轨道数据
星历时间 2025-12-18T20:14:36+0800
14小时前
查看轨道信息
2025-12-17T22:00:00+0800
1天前
查看轨道信息
半长轴 6937.228km 6937.231km
偏心率 0.000132 0.0000029
轨道倾角 43.003° 43.003°
近地点辐角 265.096° 16.399°
升交点赤经 162.687° 167.726°
平近点角 94.974° 4.670°
近地点 558.177km 559.075km
远地点 560.009km 559.117km
周期 95.838分钟 95.838分钟
每日圈数 15.025324 15.025314
详细信息
固有亮度:
5
最大亮度:
0.3
卫星平台:
Starlink v2.0 mini
覆盖范围:
全球
运营商:
太空探索技术公司
运营商所在国:
美国
制造商(研发单位):
太空探索技术公司
制造商所在国:
美国
使用方式:
暂无
卫星简介
星链(Starlink)计划是由太空探索技术公司(SpaceX)提出的一个巨型低轨卫星互联网星座项目,计划在2019年至2024年间在太空搭建由约1.2万颗卫星组成的“星链”网络,其中1584颗将部署在地球上空550千米处的近地轨道,并从2020年开始工作。该卫星仍在工作。
2D轨道图
3D轨道图
轨道高度分析图
轨道倾角分析图
轨道综合分析图
查看轨道综合分析图